sat.trackr.live / text

‹ back to catalog

STARLINK-36907

NORAD 67940 · 2026-037J

PAYLOAD ACTIVE UNKNOWN

§ Identity

Operator
Country
US
Launch date
2026-02-24
Launch site
AFETR
Launch vehicle
Mass (kg)
RCS (m²)

Purposes: comms

External: N2YO · Heavens-Above · Gunter

§ Orbital elements

Epoch: 2026-05-25T04:50:56.380416Z

Period
94.27 min
Inclination
43.0021°
Eccentricity
0.0001221
Mean motion
15.27588071 rev/d
Perigee alt
482.2 km
Apogee alt
483.9 km
Semi-major
6,861.2 km
B*
5.3225e-4
RAAN
118.4976°
Arg perigee
269.7507°
Mean anomaly
90.3205°
Rev number
1,504

§ Raw data

STARLINK-369071 67940U 26037J   26145.20204144  .00014416  00000+0  53225-3 0  99942 67940  43.0021 118.4976 0001221 269.7507  90.3205 15.27588071 15049

JSON: /api/v1/satellites/67940 · /tle

For live sub-satellite position, see the globe view (requires WebGL).

§ Visibility from observer

Set your observer location to see the next 7 days of passes ≥ 10°. The values pass through the URL so the page stays shareable.

No JS? Fill the form by hand. The geolocation button needs JavaScript.